Weather History for KOZW - February, 2014

Change the Weather History Date:

Friday, February 21, 2014

  Actual Average Record
Temperature  
Mean Temperature 36 °F -  
Max Temperature 43 °F 35 °F 59 °F (1997)
Min Temperature 28 °F 20 °F 3 °F (2008)
Degree Days  
Heating Degree Days 29    
Moisture  
Dew Point 24 °F    
Average Humidity 69    
Maximum Humidity 99    
Minimum Humidity 49    
Precipitation  
Precipitation 0.00 in - - ()
Sea Level Pressure  
Sea Level Pressure 29.51 in    
Wind  
Wind Speed 19 mph (SW)    
Max Wind Speed 32 mph    
Max Gust Speed 43 mph    
Visibility 10 miles    
Events      
Averages and records for this station are not official NWS values.
T = Trace of Precipitation, MM = Missing Value Source: NWS Daily Summary

Daily Weather History Graph

Daily Weather History Graph

Search for Another Location

Airport or City:

Trip Planner

Search our weather history database for the weather conditions in past years. The results will help you decide how hot, cold, wet, or windy it might be!

Date:

Astronomy

Feb. 21, 2014 Rise Set
Actual Time 7:24 AM EST 6:15 PM EST
Civil Twilight 6:55 AM EST 6:44 PM EST
Nautical Twilight 6:22 AM EST 7:17 PM EST
Astronomical Twilight 5:50 AM EST 7:49 PM EST
Moon 12:16 AM EST (2/21) 10:38 AM EST (2/21)
Length of Visible Light 11h 48m
Length of Day
10h 51m
Waning Gibbous, 61% of the Moon is Illuminated
Feb 21
Waning Gibbous
Feb 22
Last Quarter
Mar 1
New
Mar 8
First Quarter
Mar 16
Full

Hourly Weather History & Observations

Time (EST) Temp. Windchill Dew Point Humidity Pressure Visibility Wind Dir Wind Speed Gust Speed Precip Events Conditions
12:15 AM 44.1 °F 37.1 °F 43.7 °F 99% 29.36 in 3.0 mi South 15.0 mph 20.7 mph N/A   Overcast
12:35 AM 43.9 °F 37.5 °F 43.7 °F 99% 29.35 in 3.0 mi South 12.7 mph 20.7 mph N/A   Overcast
12:55 AM 43.7 °F 37.7 °F 43.2 °F 98% 29.36 in 4.0 mi SSW 11.5 mph - N/A   Overcast
1:15 AM 43.2 °F 35.9 °F 42.8 °F 99% 29.36 in 5.0 mi SW 15.0 mph - N/A   Overcast
1:35 AM 39.4 °F 29.5 °F 37.4 °F 93% 29.38 in 10.0 mi SSW 20.7 mph 28.8 mph N/A   Mostly Cloudy
1:55 AM 37.6 °F 28.1 °F 34.9 °F 90% 29.40 in 10.0 mi SSW 17.3 mph 26.5 mph N/A   Overcast
2:15 AM 36.7 °F 26.9 °F 33.1 °F 87% 29.41 in 10.0 mi SW 17.3 mph 27.6 mph N/A   Overcast
2:35 AM 36.5 °F 27.4 °F 32.0 °F 84% 29.41 in 10.0 mi SSW 15.0 mph 20.7 mph N/A   Overcast
2:55 AM 36.1 °F 27.7 °F 31.3 °F 83% 29.41 in 10.0 mi SW 12.7 mph 24.2 mph N/A   Overcast
3:15 AM 35.8 °F 25.4 °F 31.1 °F 83% 29.41 in 10.0 mi SW 18.4 mph 24.2 mph N/A   Overcast
3:35 AM 35.6 °F 25.2 °F 30.2 °F 81% 29.41 in 10.0 mi SW 18.4 mph 25.3 mph N/A   Overcast
3:55 AM 35.6 °F 24.8 °F 29.7 °F 79% 29.42 in 10.0 mi SW 19.6 mph 26.5 mph N/A   Overcast
4:15 AM 35.2 °F 25.0 °F 29.3 °F 79% 29.41 in 10.0 mi SSW 17.3 mph 27.6 mph N/A   Overcast
4:35 AM 35.2 °F 24.4 °F 29.3 °F 79% 29.42 in 10.0 mi SW 19.6 mph 26.5 mph N/A   Overcast
4:55 AM 35.4 °F 24.6 °F 29.1 °F 78% 29.42 in 10.0 mi SSW 19.6 mph - N/A   Overcast
5:15 AM 35.6 °F 24.5 °F 28.8 °F 76% 29.43 in 10.0 mi SSW 20.7 mph 26.5 mph N/A   Overcast
5:34 AM 35.6 °F 25.5 °F 28.4 °F 75% 29.43 in 10.0 mi SSW 17.3 mph 27.6 mph N/A   Overcast
5:55 AM 35.6 °F 25.2 °F 28.4 °F 75% 29.43 in 10.0 mi SW 18.4 mph 33.4 mph N/A   Overcast
6:15 AM 35.2 °F 25.0 °F 28.0 °F 75% 29.45 in 10.0 mi SW 17.3 mph 29.9 mph N/A   Overcast
6:34 AM 34.9 °F 25.3 °F 28.2 °F 77% 29.45 in 10.0 mi SSW 15.0 mph 26.5 mph N/A   Overcast
6:55 AM 34.7 °F 24.7 °F 27.9 °F 76% 29.45 in 10.0 mi SSW 16.1 mph 28.8 mph N/A   Overcast
7:15 AM 34.7 °F 23.7 °F 27.3 °F 74% 29.45 in 10.0 mi SSW 19.6 mph 32.2 mph N/A   Overcast
7:34 AM 34.7 °F 22.8 °F 26.6 °F 72% 29.44 in 10.0 mi SSW 23.0 mph 33.4 mph N/A   Overcast
7:55 AM 34.7 °F 22.5 °F 26.4 °F 72% 29.43 in 10.0 mi SSW 24.2 mph 32.2 mph N/A   Overcast
8:15 AM 34.9 °F 23.9 °F 25.9 °F 70% 29.44 in 10.0 mi SSW 19.6 mph 29.9 mph N/A   Overcast
8:34 AM 34.9 °F 23.0 °F 25.7 °F 69% 29.44 in 10.0 mi SSW 23.0 mph 33.4 mph N/A   Overcast
8:55 AM 34.9 °F 23.0 °F 25.5 °F 69% 29.44 in 10.0 mi SW 23.0 mph 35.7 mph N/A   Overcast
9:15 AM 34.9 °F 23.3 °F 25.3 °F 68% 29.44 in 10.0 mi SSW 21.9 mph 32.2 mph N/A   Overcast
9:34 AM 34.9 °F 22.2 °F 25.7 °F 69% 29.44 in 10.0 mi SSW 26.5 mph 33.4 mph N/A   Overcast
9:55 AM 34.7 °F 24.0 °F 25.7 °F 70% 29.44 in 10.0 mi SW 18.4 mph 38.0 mph N/A   Overcast
10:15 AM 34.7 °F 22.5 °F 25.7 °F 70% 29.44 in 10.0 mi SW 24.2 mph 34.5 mph N/A   Overcast
10:35 AM 34.7 °F 24.0 °F 25.3 °F 69% 29.45 in 10.0 mi SW 18.4 mph 32.2 mph N/A   Overcast
10:55 AM 34.7 °F 22.5 °F 25.3 °F 69% 29.45 in 10.0 mi SW 24.2 mph 36.8 mph N/A   Overcast
11:15 AM 34.3 °F 21.5 °F 24.8 °F 68% 29.46 in 10.0 mi SW 26.5 mph 42.6 mph N/A   Overcast
11:35 AM 33.8 °F 22.5 °F 25.3 °F 71% 29.47 in 10.0 mi SSW 19.6 mph 32.2 mph N/A   Overcast
11:55 AM 32.9 °F 18.4 °F 24.8 °F 72% 29.48 in 10.0 mi SW 32.2 mph 41.4 mph N/A   Overcast
12:15 PM 32.2 °F 19.1 °F 23.9 °F 72% 29.48 in 10.0 mi SW 24.2 mph 42.6 mph N/A   Overcast
12:35 PM 32.4 °F 19.1 °F 24.1 °F 72% 29.48 in 10.0 mi SW 25.3 mph 38.0 mph N/A   Overcast
12:55 PM 32.4 °F 19.7 °F 24.8 °F 74% 29.48 in 10.0 mi SSW 23.0 mph 33.4 mph N/A   Overcast
1:15 PM 32.0 °F 19.5 °F 24.6 °F 74% 29.49 in 10.0 mi SW 21.9 mph 36.8 mph N/A   Overcast
1:35 PM 32.0 °F 18.4 °F 24.3 °F 73% 29.49 in 10.0 mi SW 26.5 mph 36.8 mph N/A   Overcast
1:55 PM 32.0 °F 19.5 °F 23.5 °F 71% 29.50 in 10.0 mi SW 21.9 mph 29.9 mph N/A   Overcast
2:14 PM 32.0 °F 18.1 °F 23.0 °F 69% 29.50 in 10.0 mi SSW 27.6 mph 34.5 mph N/A   Overcast
2:35 PM 32.0 °F 18.9 °F 21.9 °F 66% 29.51 in 10.0 mi SW 24.2 mph 33.4 mph N/A   Overcast
2:55 PM 32.0 °F 18.6 °F 21.9 °F 66% 29.51 in 10.0 mi SW 25.3 mph 32.2 mph N/A   Overcast
3:14 PM 32.0 °F 17.9 °F 21.2 °F 64% 29.52 in 10.0 mi SW 28.8 mph 38.0 mph N/A   Overcast
3:35 PM 32.0 °F 19.2 °F 20.3 °F 62% 29.54 in 10.0 mi SW 23.0 mph 40.3 mph N/A   Overcast
3:55 PM 32.0 °F 18.1 °F 19.8 °F 61% 29.55 in 10.0 mi SW 27.6 mph 36.8 mph N/A   Overcast
4:14 PM 32.0 °F 18.9 °F 19.9 °F 61% 29.56 in 10.0 mi WSW 24.2 mph 38.0 mph N/A   Overcast
4:35 PM 32.0 °F 20.1 °F 19.4 °F 60% 29.57 in 10.0 mi SW 19.6 mph 38.0 mph N/A   Mostly Cloudy
4:55 PM 32.0 °F 18.6 °F 18.7 °F 58% 29.58 in 10.0 mi SW 25.3 mph 41.4 mph N/A   Mostly Cloudy
5:15 PM 32.0 °F 18.4 °F 17.8 °F 56% 29.59 in 10.0 mi SW 26.5 mph 38.0 mph N/A   Scattered Clouds
5:35 PM 31.5 °F 19.4 °F 17.8 °F 57% 29.60 in 10.0 mi SW 19.6 mph 33.4 mph N/A   Scattered Clouds
5:55 PM 31.1 °F 18.6 °F 17.4 °F 57% 29.60 in 10.0 mi SW 20.7 mph 36.8 mph N/A   Clear
6:15 PM 30.6 °F 19.0 °F 17.6 °F 59% 29.61 in 10.0 mi SW 17.3 mph 26.5 mph N/A   Clear
6:35 PM 30.2 °F 17.8 °F 16.9 °F 58% 29.63 in 10.0 mi SW 19.6 mph 28.8 mph N/A   Clear
6:55 PM 30.0 °F 18.3 °F 16.2 °F 56% 29.63 in 10.0 mi SW 17.3 mph 26.5 mph N/A   Clear
7:15 PM 29.8 °F 16.3 °F 15.6 °F 56% 29.64 in 10.0 mi SW 23.0 mph 34.5 mph N/A   Clear
7:35 PM 29.3 °F 17.0 °F 14.9 °F 55% 29.64 in 10.0 mi SW 18.4 mph 28.8 mph N/A   Clear
7:55 PM 29.3 °F 17.0 °F 14.0 °F 53% 29.65 in 10.0 mi SW 18.4 mph 32.2 mph N/A   Clear
8:15 PM 28.9 °F 17.3 °F 13.1 °F 52% 29.66 in 10.0 mi SW 16.1 mph 26.5 mph N/A   Clear
8:35 PM 29.1 °F 17.1 °F 12.2 °F 49% 29.66 in 10.0 mi SW 17.3 mph 32.2 mph N/A   Clear
8:55 PM 28.9 °F 15.4 °F 12.2 °F 50% 29.67 in 10.0 mi SW 21.9 mph 28.8 mph N/A   Clear
9:15 PM 29.3 °F 16.6 °F 13.1 °F 51% 29.68 in 10.0 mi SW 19.6 mph 33.4 mph N/A   Clear
9:35 PM 29.3 °F 16.6 °F 14.0 °F 53% 29.68 in 10.0 mi SW 19.6 mph 26.5 mph N/A   Clear
9:55 PM 29.7 °F 16.7 °F 14.7 °F 54% 29.69 in 10.0 mi SW 20.7 mph 32.2 mph N/A   Clear
10:15 PM 29.7 °F 18.6 °F 15.4 °F 55% 29.70 in 10.0 mi SW 15.0 mph 24.2 mph N/A   Clear
10:35 PM 29.5 °F 17.6 °F 16.5 °F 59% 29.70 in 10.0 mi SW 17.3 mph 25.3 mph N/A   Clear
10:55 PM 29.8 °F 16.6 °F 17.1 °F 59% 29.70 in 10.0 mi SW 21.9 mph 29.9 mph N/A   Clear
11:15 PM 30.4 °F 17.7 °F 17.6 °F 59% 29.71 in 10.0 mi SW 20.7 mph 29.9 mph N/A   Clear
11:35 PM 31.1 °F 18.9 °F 18.1 °F 59% 29.71 in 10.0 mi SW 19.6 mph 34.5 mph N/A   Clear
11:55 PM 31.6 °F 20.0 °F 18.3 °F 58% 29.71 in 10.0 mi SW 18.4 mph 28.8 mph N/A   Scattered Clouds